Погода в Даркуш-Казмаляре

Россия / Республика Дагестан     41°48′19″N   48°22′55″E
темп.,
°C
ветер,
м/с
пор.,
м/с
влажн.,
%
обл.,
%
осадки,
мм/ч
давл.,
гПа
погр.,
м
25 июня, сб
сб2500:00+19св2283100 0.0 100837
03:00+17з228865 0.0 100822
06:00+22сз22686 0.0 1009287
09:00+26с545694 0.0 10081011
12:00+27с65544 0.0 10081057
15:00+26с65593 0.0 1007830
18:00+23с4573100 0.0 1008450
21:00+19зсз2289100 0.1 100939
26 июня, вс
вс2600:00+21з2276100 0.0 100834
03:00+21сз227599 0.0 100841
06:00+22зсз1267100 0.0 1008215
09:00+28с4442100 0.0 10071008
12:00+28ссв7646100 0.1 1005796
15:00+28с774396 0.1 1005881
18:00+27ссз5844100 0.0 1004580
21:00+23з3455100 0.0 100652
27 июня, пн
пн2700:00+23зюз466356 0.0 100684
03:00+21з11670 0.0 100619
06:00+24з39620 0.0 1007449
09:00+31с78380 0.0 10061155
12:00+31с1011420 0.0 10071202
15:00+31ссз1012410 0.0 10061141
18:00+27ссз815540 0.0 1006668
21:00+23ссз49710 0.0 1006231
28 июня, вт
вт2800:00+21зсз23760 0.0 100664
03:00+23зсз411610 0.0 1006451
06:00+26ссз612400 0.0 1006795
09:00+29ссз910350 0.0 10061092
12:00+30с1011360 0.0 10061136
15:00+28ссз1012460 0.0 1007866
18:00+25ссз812550 0.0 1008835
21:00+22зсз511630 0.0 1010406
29 июня, ср
ср2900:00+21з34710 0.0 101062
03:00+21з33680 0.0 101039
06:00+25сз38410 0.0 1011553
09:00+29с67290 0.0 10111265
12:00+30с78280 0.0 10111253
15:00+29ссв66360 0.0 1011966
18:00+25с45600 0.0 1012520
21:00+19ссз36960 0.0 1014164